TimeBST,TemperatureF,Dew PointF,Humidity,Sea Level PressureIn,VisibilityMPH,Wind Direction,Wind SpeedMPH,Gust SpeedMPH,PrecipitationIn,Events,Conditions,WindDirDegrees,DateUTC
12:20 AM,48.2,46.4,93,29.65,6.2,North,2.3,-,N/A,,Mostly Cloudy,350,2013-10-16 23:20:00
12:50 AM,46.4,44.6,93,29.65,6.2,Calm,Calm,-,N/A,,Scattered Clouds,0,2013-10-16 23:50:00
1:50 AM,44.6,42.8,93,29.68,6.2,Calm,Calm,-,N/A,Fog,Patches of Fog,0,2013-10-17 00:50:00
2:50 AM,44.6,42.8,93,29.68,6.2,Calm,Calm,-,N/A,Fog,Patches of Fog,0,2013-10-17 01:50:00
3:50 AM,44.6,42.8,93,29.68,6.2,ESE,2.3,-,N/A,,Scattered Clouds,110,2013-10-17 02:50:00
4:50 AM,46.4,44.6,93,29.71,6.2,ESE,2.3,-,N/A,,Scattered Clouds,110,2013-10-17 03:50:00
5:50 AM,46.4,44.6,93,29.71,5.0,ESE,3.5,-,N/A,Rain,Light Rain,110,2013-10-17 04:50:00
6:50 AM,46.4,44.6,93,29.71,5.6,ESE,3.5,-,N/A,,Mostly Cloudy,110,2013-10-17 05:50:00
7:20 AM,48.2,46.4,93,29.71,5.6,ESE,3.5,-,N/A,,Mostly Cloudy,110,2013-10-17 06:20:00
7:50 AM,48.2,46.4,93,29.74,5.6,SSE,4.6,-,N/A,,Mostly Cloudy,160,2013-10-17 06:50:00
8:20 AM,48.2,46.4,93,29.74,6.2,SSW,4.6,-,N/A,,Scattered Clouds,200,2013-10-17 07:20:00
8:50 AM,50.0,48.2,94,29.77,6.2,SSW,5.8,-,N/A,,Scattered Clouds,200,2013-10-17 07:50:00
9:20 AM,51.8,50.0,94,29.77,5.6,SSW,6.9,-,N/A,Rain,Light Rain,200,2013-10-17 08:20:00
9:50 AM,51.8,50.0,94,29.77,4.3,SSW,5.8,-,N/A,Rain,Light Rain,200,2013-10-17 08:50:00
10:20 AM,53.6,50.0,88,29.77,4.3,SSW,6.9,-,N/A,Rain,Light Rain,200,2013-10-17 09:20:00
10:50 AM,53.6,50.0,88,29.77,4.3,SW,10.4,-,N/A,,Mostly Cloudy,220,2013-10-17 09:50:00
11:20 AM,53.6,50.0,88,29.80,6.2,SW,9.2,-,N/A,,Mostly Cloudy,220,2013-10-17 10:20:00
11:50 AM,57.2,51.8,82,29.80,6.2,SW,12.7,-,N/A,,Mostly Cloudy,220,2013-10-17 10:50:00
12:20 PM,55.4,50.0,82,29.80,6.2,SW,11.5,-,N/A,,Mostly Cloudy,220,2013-10-17 11:20:00
12:50 PM,55.4,50.0,82,29.80,6.2,SW,12.7,-,N/A,,Mostly Cloudy,220,2013-10-17 11:50:00
1:20 PM,55.4,50.0,82,29.80,6.2,SW,12.7,-,N/A,,Mostly Cloudy,220,2013-10-17 12:20:00
1:50 PM,55.4,50.0,82,29.83,6.2,SW,13.8,-,N/A,,Mostly Cloudy,230,2013-10-17 12:50:00
2:20 PM,55.4,50.0,82,29.83,4.3,SW,12.7,-,N/A,Rain,Light Rain Showers,230,2013-10-17 13:20:00
2:50 PM,55.4,50.0,82,29.83,2.5,SW,12.7,-,N/A,Rain,Light Rain Showers,230,2013-10-17 13:50:00
3:20 PM,55.4,50.0,82,29.83,4.3,WSW,10.4,-,N/A,Rain,Light Rain Showers,240,2013-10-17 14:20:00
3:50 PM,55.4,50.0,82,29.83,3.7,SW,10.4,-,N/A,,Mostly Cloudy,230,2013-10-17 14:50:00
4:20 PM,53.6,50.0,88,29.86,5.0,SW,10.4,-,N/A,,Mostly Cloudy,230,2013-10-17 15:20:00
4:50 PM,53.6,50.0,88,29.86,6.2,SW,8.1,-,N/A,,Mostly Cloudy,230,2013-10-17 15:50:00
5:20 PM,55.4,50.0,82,29.86,6.2,SW,5.8,-,N/A,,Scattered Clouds,230,2013-10-17 16:20:00
5:50 PM,55.4,50.0,82,29.86,6.2,SW,5.8,-,N/A,,Scattered Clouds,230,2013-10-17 16:50:00
6:20 PM,53.6,48.2,82,29.86,6.2,SW,4.6,-,N/A,,Scattered Clouds,220,2013-10-17 17:20:00
6:50 PM,51.8,46.4,82,29.89,6.2,Variable,3.5,-,N/A,,Scattered Clouds,0,2013-10-17 17:50:00
7:20 PM,50.0,46.4,87,29.89,6.2,SSW,5.8,-,N/A,,Partly Cloudy,210,2013-10-17 18:20:00
7:50 PM,50.0,44.6,82,29.89,6.2,Calm,Calm,-,N/A,,Partly Cloudy,0,2013-10-17 18:50:00
8:20 PM,48.2,44.6,87,29.89,6.2,SSE,2.3,-,N/A,,Partly Cloudy,150,2013-10-17 19:20:00
8:50 PM,46.4,44.6,93,29.92,6.2,SE,3.5,-,N/A,,Partly Cloudy,140,2013-10-17 19:50:00
9:20 PM,44.6,42.8,93,29.92,6.2,Variable,3.5,-,N/A,,Partly Cloudy,0,2013-10-17 20:20:00
9:50 PM,44.6,42.8,93,29.92,6.2,East,2.3,-,N/A,,Partly Cloudy,100,2013-10-17 20:50:00
10:20 PM,44.6,41.0,87,29.92,6.2,Calm,Calm,-,N/A,,Partly Cloudy,0,2013-10-17 21:20:00
10:50 PM,44.6,41.0,87,29.95,6.2,Calm,Calm,-,N/A,,Partly Cloudy,0,2013-10-17 21:50:00
11:20 PM,44.6,42.8,93,29.95,6.2,Calm,Calm,-,N/A,,Partly Cloudy,0,2013-10-17 22:20:00
11:50 PM,44.6,41.0,87,29.95,6.2,Calm,Calm,-,N/A,,Partly Cloudy,0,2013-10-17 22:50:00